Home   Weather   48°18'N, 16°21'E   Past weeks
Flag for Austria

Past Weather in 48°18'N, 16°21'E, Austria — Yesterday and Last 2 Weeks

Now
55 °F

Partly cloudy.


Feels Like: 52 °F
Forecast: 63 / 53 °F
Wind: 14 mph from Northwest

Location: Vienna Schwechat-Flughafen Airport

Current Time: May 23, 2019 at 12:58:32 am

Latest Report: May 23, 2019 at 12:20 am


Visibility: N/A

Pressure: 29.95 "Hg

Humidity: 88%

Dew Point: 52 °F

Location of 48°18'N, 16°21'ELocation

Past Weather in 48°18'N, 16°21'E — Graph

°F

48°18'N, 16°21'E Temperature Yesterday

Maximum temperature yesterday: 61 °F (at 1:20 pm)
Minimum temperature yesterday: 55 °F (at 6:50 am)
Average temperature yesterday: 58 °F

High & Low Weather Summary for the Past Weeks

 TemperatureHumidityPressure
High70 °F (May 19, 3:50 pm)100% (May 17, 4:20 am)30.42 "Hg (May 17, 4:20 am)
Low37 °F (May 8, 3:50 am)38% (May 10, 2:50 pm)29.59 "Hg (May 9, 1:50 am)
Average53 °F76%29.90 "Hg
* Reported May 7 11:20 pm — May 22 11:20 pm, 48°18'N, 16°21'E. Weather by CustomWeather, © 2019

Note: Actual official high and low records may vary slightly from our data, if they occured in-between our weather recording intervals... More about our weather records

Advertising

48°18'N, 16°21'E Weather History for the Previous 24 Hours

Scroll right to see more
 ConditionsComfort  
Time TempWeatherWind HumidityBarometerVisibility
11:20 pm
Wed, May 22
57 °FPartly cloudy.16 mph82%29.95 "HgN/A
10:50 pm57 °FPartly cloudy.16 mph82%29.95 "HgN/A
10:20 pm57 °FLight rain. Partly cloudy.17 mph82%29.95 "HgN/A
9:50 pm57 °FMostly cloudy.16 mph82%29.95 "HgN/A
9:20 pm57 °FLight rain. Passing clouds.14 mph88%29.92 "HgN/A
8:50 pm57 °FLight rain. Partly cloudy.14 mph88%29.92 "HgN/A
8:20 pm57 °FLight rain. Partly sunny.18 mph88%29.92 "HgN/A
7:50 pm57 °FLight rain. Broken clouds.18 mph82%29.92 "HgN/A
7:20 pm57 °FLight rain. Broken clouds.17 mph82%29.92 "HgN/A
6:50 pm57 °FLight rain. Broken clouds.17 mph82%29.89 "HgN/A
6:20 pm59 °FRain. Broken clouds.18 mph77%29.89 "HgN/A
5:50 pm59 °FLight rain. Partly sunny.21 mph77%29.89 "HgN/A
5:20 pm59 °FLight rain. Partly sunny.21 mph77%29.89 "HgN/A
4:50 pm59 °FLight rain. Broken clouds.20 mph77%29.89 "HgN/A
4:20 pm59 °FLight rain. Broken clouds.22 mph77%29.89 "HgN/A
3:50 pm59 °FBroken clouds.21 mph77%29.86 "HgN/A
3:20 pm61 °FLight rain. Broken clouds.24 mph72%29.86 "HgN/A
2:50 pm61 °FLight rain. Broken clouds.24 mph72%29.86 "HgN/A
2:20 pm61 °FBroken clouds.22 mph77%29.86 "HgN/A
1:50 pm61 °FBroken clouds.21 mph77%29.86 "HgN/A
1:20 pm61 °FBroken clouds.22 mph77%29.86 "HgN/A
12:50 pm59 °FPartly sunny.22 mph82%29.86 "HgN/A
12:20 pm57 °FLight rain. Broken clouds.21 mph88%29.86 "HgN/A
11:50 am57 °FLight rain. Partly sunny.20 mph88%29.83 "HgN/A
11:20 am59 °FLight rain. Broken clouds.20 mph82%29.83 "HgN/A
10:50 am59 °FBroken clouds.20 mph82%29.83 "HgN/A
10:20 am57 °FPartly sunny.21 mph88%29.83 "HgN/A
9:50 am57 °FLight rain. Broken clouds.20 mph82%29.83 "HgN/A
9:20 am55 °FLight rain. Broken clouds.20 mph88%29.80 "HgN/A
8:50 am57 °FRain. Broken clouds.17 mph82%29.80 "HgN/A
8:20 am55 °FBroken clouds.18 mph88%29.80 "HgN/A
7:50 am55 °FLight rain. Broken clouds.15 mph88%29.80 "HgN/A
7:20 am55 °FLight rain. Partly sunny.16 mph88%29.80 "HgN/A
6:50 am55 °FLight rain. Partly sunny.18 mph88%29.80 "HgN/A
6:20 am57 °FLight rain. Partly sunny.22 mph82%29.77 "HgN/A
5:50 am57 °FLight rain. Partly sunny.17 mph82%29.77 "HgN/A
5:20 am57 °FLight rain. Broken clouds.16 mph77%29.77 "HgN/A
4:50 am57 °FClear.18 mph77%29.77 "Hg10 mi
4:20 am57 °FClear.18 mph77%29.77 "Hg10 mi
3:50 am57 °FClear.17 mph77%29.77 "Hg10 mi
3:20 am57 °FClear.17 mph77%29.77 "Hg10 mi
2:50 am57 °FClear.17 mph77%29.77 "Hg10 mi
2:20 am57 °FClear.18 mph72%29.77 "Hg10 mi
1:50 am57 °FClear.15 mph72%29.77 "Hg10 mi
1:20 am57 °FClear.17 mph72%29.77 "Hg10 mi
12:50 am57 °FClear.18 mph72%29.77 "Hg10 mi
12:20 am57 °FClear.22 mph72%29.77 "Hg10 mi
Weather by CustomWeather, © 2019

See weather overview